Track FLOCK 2EP 20 now! 10-day predictions FLOCK 2EP 20 is classified as:
1 41782U 98067KQ 18111.80071286 .00042827 00000-0 27770-3 0 9995 2 41782 51.6344 257.5664 0002739 345.1388 14.9531 15.75562599 91147